CMB56 ETAR-KCHS

Flight info

Callsign CMB56
Flight time N/A
Altitude 34000
Route LIMGO N852 DIK M624 REMBA DCT TULIP DCT TOPPA DCT GINGA DCT GOMUP/M083F340 DCT 59N020W 60N030W 59N040W 57N050W DCT HOIST/N0486F340 DCT QUBIS/N0491F380 DCT EMJAY DCT ORF DCT RAPZZ AMYLU3
Aircraft B762/H-SDE1E2E3FGHIJ2J3J4J5M1RWXY/LB1D1

Departure

Time N/A
Airport Ramstein Air Base (ETAR)

Arrival

Time 2026-04-20 22:25
Airport Charleston International Airport (KCHS)
Time Latitude Longitude Altitude Speed Heading
2026-04-20 20:38 42.17230 -71.87700 34153 ft 380 kts 207°
2026-04-20 20:38 42.14964 -71.89263 34157 ft 380 kts 207°
2026-04-20 20:39 42.10486 -71.92350 34162 ft 380 kts 207°
2026-04-20 20:39 42.07065 -71.94705 34173 ft 379 kts 207°
2026-04-20 20:40 42.02360 -71.97940 34164 ft 380 kts 207°
2026-04-20 20:40 41.97650 -72.01171 34165 ft 382 kts 207°
2026-04-20 20:41 41.92795 -72.04499 34191 ft 401 kts 207°
2026-04-20 20:41 41.87754 -72.07946 34187 ft 417 kts 207°
2026-04-20 20:42 41.82519 -72.11520 34183 ft 425 kts 207°
2026-04-20 20:42 41.77258 -72.15103 34181 ft 423 kts 207°
2026-04-20 20:43 41.72021 -72.18664 34181 ft 422 kts 207°
2026-04-20 20:43 41.66790 -72.22214 34189 ft 421 kts 207°
2026-04-20 20:44 41.61589 -72.25740 34185 ft 422 kts 207°
2026-04-20 20:44 41.56344 -72.29288 34183 ft 423 kts 207°
2026-04-20 20:45 41.51077 -72.32843 34187 ft 424 kts 208°
2026-04-20 20:45 41.47241 -72.35432 34182 ft 425 kts 207°
2026-04-20 20:46 41.42769 -72.38439 34188 ft 425 kts 208°
2026-04-20 20:46 41.37484 -72.41990 34183 ft 426 kts 208°
2026-04-20 20:47 41.32195 -72.45537 34183 ft 426 kts 208°
2026-04-20 20:47 41.26900 -72.49080 34185 ft 427 kts 208°
2026-04-20 20:48 41.21633 -72.52602 34185 ft 427 kts 208°
2026-04-20 20:48 41.16325 -72.56144 34192 ft 427 kts 208°
2026-04-20 20:49 41.11017 -72.59678 34194 ft 427 kts 208°
2026-04-20 20:49 41.05703 -72.63210 34194 ft 427 kts 208°
2026-04-20 20:50 41.00420 -72.66715 34194 ft 428 kts 208°
2026-04-20 20:50 40.95093 -72.70244 34202 ft 428 kts 208°
2026-04-20 20:51 40.89757 -72.73769 34202 ft 429 kts 208°
2026-04-20 20:51 40.84417 -72.77295 34202 ft 430 kts 208°
2026-04-20 20:52 40.79094 -72.80799 34194 ft 430 kts 208°
2026-04-20 20:52 40.73753 -72.84311 34193 ft 429 kts 208°
2026-04-20 20:53 40.68416 -72.87813 34192 ft 429 kts 208°
2026-04-20 20:53 40.63071 -72.91315 34193 ft 429 kts 208°
2026-04-20 20:54 40.57731 -72.94807 34194 ft 429 kts 208°
2026-04-20 20:54 40.52408 -72.98281 34195 ft 430 kts 208°
2026-04-20 20:55 40.47036 -73.01782 34193 ft 431 kts 208°
2026-04-20 20:55 40.41653 -73.05283 34196 ft 433 kts 208°
2026-04-20 20:56 40.36276 -73.08774 34196 ft 433 kts 208°
2026-04-20 20:56 40.30869 -73.12279 34190 ft 434 kts 208°
2026-04-20 20:57 40.25462 -73.15778 34195 ft 435 kts 208°
2026-04-20 20:57 40.20052 -73.19272 34197 ft 436 kts 208°
2026-04-20 20:58 40.14618 -73.22776 34214 ft 437 kts 208°
2026-04-20 20:58 40.10216 -73.25683 34199 ft 437 kts 211°
2026-04-20 20:59 40.05801 -73.29516 34201 ft 436 kts 218°
2026-04-20 20:59 40.00933 -73.34300 34201 ft 438 kts 218°
2026-04-20 21:00 39.96076 -73.39007 34220 ft 438 kts 218°
2026-04-20 21:00 39.91185 -73.43731 34199 ft 437 kts 218°
2026-04-20 21:01 39.86299 -73.48436 34203 ft 437 kts 218°
2026-04-20 21:01 39.81403 -73.53147 34218 ft 438 kts 218°
2026-04-20 21:02 39.76504 -73.57856 34210 ft 438 kts 218°
2026-04-20 21:02 39.71624 -73.62535 34216 ft 439 kts 218°
2026-04-20 21:03 39.66711 -73.67230 34216 ft 440 kts 218°
2026-04-20 21:03 39.61770 -73.71953 34208 ft 441 kts 218°
2026-04-20 21:04 39.56870 -73.76629 34215 ft 440 kts 218°
2026-04-20 21:04 39.51939 -73.81322 34211 ft 439 kts 218°
2026-04-20 21:05 39.47016 -73.85996 34216 ft 439 kts 218°
2026-04-20 21:05 39.42096 -73.90661 34204 ft 438 kts 218°
2026-04-20 21:06 39.37213 -73.95284 34215 ft 437 kts 218°
2026-04-20 21:06 39.32320 -73.99907 34213 ft 435 kts 218°
2026-04-20 21:07 39.27423 -74.04525 34212 ft 436 kts 218°
2026-04-20 21:07 39.22516 -74.09149 34232 ft 437 kts 218°
2026-04-20 21:08 39.17599 -74.13774 34215 ft 440 kts 219°
2026-04-20 21:08 39.12663 -74.18409 34228 ft 443 kts 219°
2026-04-20 21:09 39.07663 -74.23091 34226 ft 444 kts 219°
2026-04-20 21:09 39.02666 -74.27766 34231 ft 444 kts 219°
2026-04-20 21:10 38.97693 -74.32404 34227 ft 442 kts 219°
2026-04-20 21:10 38.92759 -74.36999 34216 ft 440 kts 220°
2026-04-20 21:11 38.87816 -74.41597 34238 ft 438 kts 220°
2026-04-20 21:11 38.82874 -74.46187 34244 ft 438 kts 220°
2026-04-20 21:12 38.77939 -74.50759 34235 ft 438 kts 220°
2026-04-20 21:12 38.73037 -74.55296 34241 ft 438 kts 220°
2026-04-20 21:13 38.68101 -74.59856 34242 ft 438 kts 220°
2026-04-20 21:13 38.63163 -74.64410 34236 ft 438 kts 220°
2026-04-20 21:14 38.58215 -74.68966 34234 ft 438 kts 220°
2026-04-20 21:14 38.53264 -74.73513 34243 ft 438 kts 220°
2026-04-20 21:15 38.48339 -74.78030 34233 ft 439 kts 220°
2026-04-20 21:15 38.43377 -74.82574 34224 ft 440 kts 220°
2026-04-20 21:16 38.38405 -74.87119 34230 ft 440 kts 220°
2026-04-20 21:16 38.33423 -74.91666 34236 ft 441 kts 220°
2026-04-20 21:17 38.28459 -74.96188 34235 ft 442 kts 220°
2026-04-20 21:17 38.23448 -75.00748 34223 ft 444 kts 220°
2026-04-20 21:18 38.18419 -75.05313 34233 ft 445 kts 220°
2026-04-20 21:18 38.13369 -75.09888 34236 ft 447 kts 220°
2026-04-20 21:19 38.08334 -75.14441 34236 ft 448 kts 220°
2026-04-20 21:20 38.00695 -75.21338 34229 ft 450 kts 220°
2026-04-20 21:20 37.95582 -75.25942 34229 ft 450 kts 220°
2026-04-20 21:21 37.90483 -75.30526 34233 ft 449 kts 220°
2026-04-20 21:21 37.85424 -75.35067 34227 ft 449 kts 220°
2026-04-20 21:22 37.80330 -75.39634 34230 ft 449 kts 220°
2026-04-20 21:22 37.75218 -75.44206 34234 ft 451 kts 220°
2026-04-20 21:23 37.70092 -75.48783 34230 ft 452 kts 220°
2026-04-20 21:23 37.64979 -75.53343 34237 ft 453 kts 220°
2026-04-20 21:24 37.59821 -75.57932 34241 ft 454 kts 220°
2026-04-20 21:24 37.54664 -75.62512 34237 ft 453 kts 220°
2026-04-20 21:25 37.49510 -75.67083 34234 ft 453 kts 220°
2026-04-20 21:25 37.44396 -75.71612 34234 ft 452 kts 220°
2026-04-20 21:26 37.39245 -75.76163 34230 ft 452 kts 220°
2026-04-20 21:26 37.34093 -75.80709 34234 ft 452 kts 220°
2026-04-20 21:27 37.28956 -75.85234 34227 ft 451 kts 220°
2026-04-20 21:27 37.23853 -75.89719 34230 ft 450 kts 220°
2026-04-20 21:28 37.18724 -75.94220 34224 ft 449 kts 220°
2026-04-20 21:28 37.13604 -75.98710 34218 ft 448 kts 220°
2026-04-20 21:29 37.08508 -76.03167 34212 ft 449 kts 220°
2026-04-20 21:29 37.03391 -76.07640 34222 ft 453 kts 220°
2026-04-20 21:30 36.98205 -76.12164 34218 ft 455 kts 220°
2026-04-20 21:30 36.93005 -76.16691 34216 ft 455 kts 220°
2026-04-20 21:31 36.87822 -76.21206 34211 ft 453 kts 221°
2026-04-20 21:31 36.82754 -76.25757 34219 ft 451 kts 221°
2026-04-20 21:32 36.77689 -76.30347 34213 ft 449 kts 221°
2026-04-20 21:32 36.72630 -76.34911 34202 ft 448 kts 221°
2026-04-20 21:33 36.67577 -76.39453 34216 ft 447 kts 221°
2026-04-20 21:33 36.62560 -76.43949 34226 ft 447 kts 221°
2026-04-20 21:34 36.57502 -76.48472 34214 ft 448 kts 221°
2026-04-20 21:34 36.52447 -76.52983 34215 ft 447 kts 221°
2026-04-20 21:35 36.47391 -76.57495 34210 ft 447 kts 221°
2026-04-20 21:35 36.42365 -76.61971 34214 ft 448 kts 221°
2026-04-20 21:36 36.37300 -76.66475 34210 ft 448 kts 221°
2026-04-20 21:36 36.32226 -76.70977 34204 ft 448 kts 221°
2026-04-20 21:37 36.27144 -76.75479 34200 ft 449 kts 221°
2026-04-20 21:37 36.22085 -76.79952 34202 ft 450 kts 221°
2026-04-20 21:38 36.16981 -76.84457 34211 ft 451 kts 221°
2026-04-20 21:38 36.11873 -76.88963 34218 ft 451 kts 221°
2026-04-20 21:39 36.06758 -76.93466 34211 ft 452 kts 221°
2026-04-20 21:39 36.01668 -76.97939 34202 ft 453 kts 221°
2026-04-20 21:40 35.96526 -77.02451 34225 ft 452 kts 222°
2026-04-20 21:40 35.91415 -77.06924 34195 ft 449 kts 222°
2026-04-20 21:41 35.86326 -77.11371 34217 ft 448 kts 222°
2026-04-20 21:41 35.81276 -77.15785 34201 ft 448 kts 222°
2026-04-20 21:42 35.76178 -77.20230 34201 ft 450 kts 222°
2026-04-20 21:42 35.71053 -77.24691 34206 ft 452 kts 222°
2026-04-20 21:43 35.65949 -77.29127 34195 ft 453 kts 222°
2026-04-20 21:43 35.60793 -77.33600 34196 ft 454 kts 222°
2026-04-20 21:44 35.55628 -77.38071 34193 ft 454 kts 222°
2026-04-20 21:44 35.50465 -77.42535 34195 ft 454 kts 222°
2026-04-20 21:45 35.45338 -77.46961 34193 ft 453 kts 222°
2026-04-20 21:45 35.40183 -77.51405 34200 ft 453 kts 222°
2026-04-20 21:46 35.35022 -77.55844 34200 ft 453 kts 222°
2026-04-20 21:46 35.29874 -77.60269 34201 ft 452 kts 222°
2026-04-20 21:47 35.24763 -77.64654 34202 ft 452 kts 222°
2026-04-20 21:47 35.19615 -77.69063 34201 ft 451 kts 222°
2026-04-20 21:48 35.14476 -77.73459 34213 ft 450 kts 222°
2026-04-20 21:48 35.09345 -77.77838 34210 ft 449 kts 222°
2026-04-20 21:49 35.04259 -77.82173 34218 ft 448 kts 222°
2026-04-20 21:49 34.99154 -77.86517 34205 ft 447 kts 223°
2026-04-20 21:50 34.94064 -77.90843 34223 ft 446 kts 223°
2026-04-20 21:50 34.88984 -77.95153 34210 ft 444 kts 223°
2026-04-20 21:51 34.83948 -77.99421 34218 ft 444 kts 223°
2026-04-20 21:51 34.78876 -78.03713 34221 ft 445 kts 223°
2026-04-20 21:52 34.73776 -78.08024 34218 ft 448 kts 223°
2026-04-20 21:52 34.68655 -78.12344 34203 ft 448 kts 223°
2026-04-20 21:53 34.63564 -78.16628 34200 ft 447 kts 223°
2026-04-20 21:53 34.58458 -78.20918 34202 ft 446 kts 223°
2026-04-20 21:54 34.53368 -78.25192 34223 ft 444 kts 223°
2026-04-20 21:54 34.48290 -78.29451 34220 ft 443 kts 223°
2026-04-20 21:55 34.43263 -78.33659 34224 ft 442 kts 223°
2026-04-20 21:55 34.38211 -78.37882 34214 ft 441 kts 223°
2026-04-20 21:56 34.33155 -78.42106 34226 ft 442 kts 223°
2026-04-20 21:56 34.28121 -78.46367 34236 ft 439 kts 226°
2026-04-20 21:57 34.23733 -78.51354 34236 ft 430 kts 234°
2026-04-20 21:57 34.20074 -78.56910 34241 ft 424 kts 240°
2026-04-20 21:58 34.16579 -78.62660 34242 ft 425 kts 240°
2026-04-20 21:58 34.13074 -78.68396 34236 ft 425 kts 240°
2026-04-20 21:59 34.09546 -78.74136 34234 ft 426 kts 240°
2026-04-20 21:59 34.06028 -78.79844 34242 ft 427 kts 240°
2026-04-20 21:59 34.04247 -78.82734 33510 ft 436 kts 240°
2026-04-20 22:00 34.02433 -78.85676 32705 ft 435 kts 240°
2026-04-20 22:00 34.00625 -78.88598 31814 ft 435 kts 240°
2026-04-20 22:00 33.98815 -78.91519 30974 ft 434 kts 240°
2026-04-20 22:00 33.97020 -78.94411 30308 ft 428 kts 240°
2026-04-20 22:01 33.95250 -78.97262 29613 ft 422 kts 240°
2026-04-20 22:01 33.93529 -79.00035 28921 ft 416 kts 240°
2026-04-20 22:01 33.91805 -79.02813 28240 ft 411 kts 240°
2026-04-20 22:01 33.90108 -79.05548 27577 ft 406 kts 240°
2026-04-20 22:02 33.88428 -79.08254 26924 ft 401 kts 240°
2026-04-20 22:02 33.86762 -79.10935 26278 ft 397 kts 240°
2026-04-20 22:02 33.85118 -79.13582 25629 ft 393 kts 240°
2026-04-20 22:02 33.83486 -79.16206 24999 ft 392 kts 240°
2026-04-20 22:03 33.82515 -79.17766 24631 ft 394 kts 240°
2026-04-20 22:03 33.81089 -79.20041 24100 ft 403 kts 239°
2026-04-20 22:03 33.79184 -79.22587 23433 ft 413 kts 232°
2026-04-20 22:03 33.77040 -79.24866 22960 ft 410 kts 227°
2026-04-20 22:04 33.74729 -79.26909 22563 ft 415 kts 221°
2026-04-20 22:04 33.72275 -79.28767 22169 ft 419 kts 220°
2026-04-20 22:04 33.69796 -79.30612 21762 ft 418 kts 219°
2026-04-20 22:04 33.67329 -79.32445 21364 ft 415 kts 219°
2026-04-20 22:05 33.64926 -79.34238 20972 ft 411 kts 220°
2026-04-20 22:05 33.62507 -79.36051 20587 ft 409 kts 219°
2026-04-20 22:05 33.60107 -79.37857 20195 ft 406 kts 220°
2026-04-20 22:05 33.57719 -79.39657 19802 ft 404 kts 220°
2026-04-20 22:06 33.55345 -79.41447 19412 ft 402 kts 219°
2026-04-20 22:06 33.52984 -79.43224 19026 ft 401 kts 219°
2026-04-20 22:06 33.50626 -79.44996 18654 ft 398 kts 219°
2026-04-20 22:06 33.48311 -79.46733 18263 ft 397 kts 219°
2026-04-20 22:07 33.45980 -79.48486 17860 ft 396 kts 219°
2026-04-20 22:07 33.43633 -79.50251 17327 ft 397 kts 219°
2026-04-20 22:07 33.41307 -79.51996 16906 ft 391 kts 219°
2026-04-20 22:07 33.39022 -79.53708 16518 ft 385 kts 219°
2026-04-20 22:08 33.36763 -79.55402 16142 ft 383 kts 219°
2026-04-20 22:08 33.34511 -79.57092 15777 ft 382 kts 219°
2026-04-20 22:08 33.32276 -79.58787 15413 ft 381 kts 219°
2026-04-20 22:08 33.30034 -79.60492 15059 ft 380 kts 219°
2026-04-20 22:09 33.27836 -79.62162 14692 ft 380 kts 219°
2026-04-20 22:09 33.25605 -79.63854 14328 ft 379 kts 219°
2026-04-20 22:09 33.23381 -79.65535 13966 ft 378 kts 218°
2026-04-20 22:09 33.21130 -79.67148 13608 ft 380 kts 214°
2026-04-20 22:10 33.18710 -79.68456 13240 ft 384 kts 206°
2026-04-20 22:10 33.16204 -79.69543 12877 ft 382 kts 206°
2026-04-20 22:10 33.13718 -79.70636 12512 ft 380 kts 206°
2026-04-20 22:10 33.11278 -79.71718 12153 ft 378 kts 206°
2026-04-20 22:11 33.08830 -79.72809 11789 ft 372 kts 206°
2026-04-20 22:11 33.06438 -79.73876 11431 ft 363 kts 206°
2026-04-20 22:11 33.04097 -79.74923 11085 ft 354 kts 205°
2026-04-20 22:11 33.01823 -79.75941 10751 ft 346 kts 205°
2026-04-20 22:12 32.99581 -79.76946 10416 ft 339 kts 205°
2026-04-20 22:12 32.97396 -79.77925 10097 ft 333 kts 204°
2026-04-20 22:12 32.95253 -79.78882 9864 ft 323 kts 204°
2026-04-20 22:12 32.93186 -79.79806 9696 ft 313 kts 204°
2026-04-20 22:13 32.91220 -79.80685 9589 ft 297 kts 204°
2026-04-20 22:13 32.89353 -79.81516 9409 ft 276 kts 204°
2026-04-20 22:13 32.87618 -79.82289 9151 ft 259 kts 204°
2026-04-20 22:13 32.85963 -79.83028 8752 ft 252 kts 204°
2026-04-20 22:14 32.84325 -79.83762 8251 ft 248 kts 203°
2026-04-20 22:14 32.82746 -79.84469 7976 ft 239 kts 203°
2026-04-20 22:14 32.81179 -79.85170 7746 ft 241 kts 202°
2026-04-20 22:14 32.79668 -79.85844 7487 ft 230 kts 202°
2026-04-20 22:15 32.78204 -79.86498 7260 ft 221 kts 202°
2026-04-20 22:15 32.76790 -79.87128 7124 ft 219 kts 202°
2026-04-20 22:15 32.75341 -79.87774 6919 ft 224 kts 202°
2026-04-20 22:15 32.73881 -79.88423 6673 ft 223 kts 202°
2026-04-20 22:16 32.72435 -79.89066 6432 ft 220 kts 202°
2026-04-20 22:16 32.71136 -79.89895 6193 ft 209 kts 229°
2026-04-20 22:16 32.70352 -79.91332 6074 ft 212 kts 243°
2026-04-20 22:16 32.69583 -79.92832 5880 ft 218 kts 240°
2026-04-20 22:17 32.68784 -79.94347 5643 ft 215 kts 241°
2026-04-20 22:17 32.68006 -79.95841 5437 ft 211 kts 241°
2026-04-20 22:17 32.67244 -79.97312 5249 ft 208 kts 241°
2026-04-20 22:17 32.66490 -79.98770 5038 ft 207 kts 241°
2026-04-20 22:18 32.65759 -80.00239 4837 ft 204 kts 248°
2026-04-20 22:18 32.65629 -80.01846 4654 ft 197 kts 290°
2026-04-20 22:18 32.65991 -80.02830 4607 ft 199 kts 299°
2026-04-20 22:18 32.66803 -80.04836 4324 ft 204 kts 297°
2026-04-20 22:19 32.67401 -80.06346 4137 ft 201 kts 297°
2026-04-20 22:19 32.67992 -80.07825 3933 ft 196 kts 297°
2026-04-20 22:19 32.68576 -80.09286 3780 ft 198 kts 297°
2026-04-20 22:19 32.68969 -80.10266 3629 ft 199 kts 297°
2026-04-20 22:20 32.69564 -80.11752 3453 ft 199 kts 298°
2026-04-20 22:20 32.70387 -80.13007 3234 ft 194 kts 330°
2026-04-20 22:20 32.71667 -80.13366 3054 ft 192 kts
2026-04-20 22:20 32.73341 -80.12714 2832 ft 189 kts 24°
2026-04-20 22:21 32.74490 -80.12095 2667 ft 176 kts 24°
2026-04-20 22:21 32.75590 -80.11496 2477 ft 172 kts 25°
2026-04-20 22:21 32.76322 -80.11101 2379 ft 170 kts 25°
2026-04-20 22:21 32.77391 -80.10528 2222 ft 168 kts 25°
2026-04-20 22:22 32.78725 -80.09807 2001 ft 148 kts 25°
2026-04-20 22:22 32.79340 -80.09479 1897 ft 145 kts 26°
2026-04-20 22:22 32.80259 -80.08972 1804 ft 145 kts 27°
2026-04-20 22:22 32.81187 -80.08471 1737 ft 148 kts 26°
2026-04-20 22:23 32.82144 -80.07963 1482 ft 152 kts 26°
2026-04-20 22:23 32.83131 -80.07439 1293 ft 159 kts 26°
2026-04-20 22:23 32.84144 -80.06886 1077 ft 160 kts 27°
2026-04-20 22:23 32.85156 -80.06322 777 ft 164 kts 26°
2026-04-20 22:24 32.86184 -80.05783 569 ft 160 kts 24°
2026-04-20 22:24 32.87215 -80.05254 369 ft 160 kts 26°
2026-04-20 22:24 32.88225 -80.04697 135 ft 160 kts 26°
2026-04-20 22:24 32.89222 -80.04163 43 ft 150 kts 25°
2026-04-20 22:25 32.89981 -80.03753 41 ft 57 kts 24°
2026-04-20 22:25 32.90137 -80.03606 46 ft 22 kts 102°
2026-04-20 22:25 32.90073 -80.03507 45 ft 15 kts 173°
2026-04-20 22:25 32.89974 -80.03547 42 ft 15 kts 204°
2026-04-20 22:26 32.89870 -80.03573 45 ft 15 kts 182°
2026-04-20 22:26 32.89742 -80.03576 43 ft 21 kts 181°
2026-04-20 22:26 32.89646 -80.03651 43 ft 18 kts 258°
2026-04-20 22:27 32.89676 -80.04030 45 ft 24 kts 276°
2026-04-20 22:27 32.89695 -80.04225 45 ft 24 kts 276°
2026-04-20 22:27 32.89712 -80.04388 45 ft 15 kts 276°
2026-04-20 22:27 32.89644 -80.04454 45 ft 15 kts 184°
2026-04-20 22:28 32.89542 -80.04458 45 ft 15 kts 181°
2026-04-20 22:28 32.89440 -80.04462 45 ft 15 kts 193°
2026-04-20 22:28 32.89407 -80.04568 45 ft 15 kts 271°
2026-04-20 22:28 32.89424 -80.04678 45 ft 12 kts 293°
2026-04-20 22:29 32.89477 -80.04726 45 ft 10 kts 355°
2026-04-20 22:29 32.89507 -80.04725 45 ft 0 kts